Location: Indian Springs
(36.5700°N, 115.6700°W)
Time: 03:52:26
(UTC-07:00)

Amateur Radio Satellites - All Passes

Search period start: 25 July 2017 03:22
Search period end: 26 July 2017 03:22
Location: Indian Springs, 36.5700°N, 115.6700°W

Satellite Date Start Highest point End Downlink Frequencies (MHz)
Time Altitude Azimuth
Oscar 19 25 Jul 03:26:50 03:30:39 21° 294° (WNW) 03:34:29 437.125/150
ITAMSAT 1 25 Jul 03:38:17 03:42:59 34° 98° (E) 03:47:38 435.822/435.867
MOZHAYETS 4 25 Jul 03:38:31 03:43:02 57° 260° (W) 03:47:33
ISS 25 Jul 03:40:37 03:43:52 64° 40° (NE) 03:47:06 437.550
Gurwin Techsat 1B 25 Jul 03:52:39 03:56:27 20° 295° (WNW) 04:00:16 435.225
Tancredo 1 25 Jul 04:04:41 04:06:44 17° 230° (SW) 04:08:47 437.200
YUBILEINY 25 Jul 04:05:26 04:06:46 10° 60° (ENE) 04:08:06 435.215
CUBESAT XI-V 25 Jul 04:12:57 04:17:26 59° 75° (ENE) 04:21:58 437.345
BEESAT 25 Jul 04:16:28 04:19:36 17° 266° (W) 04:22:43 436.000
KKS-1 25 Jul 04:19:58 04:24:07 38° 71° (ENE) 04:28:16 437.445
nSIGHT-1 25 Jul 04:23:01 04:26:02 37° 226° (SW) 04:29:03 .
AO-7 25 Jul 04:23:53 04:32:18 80° 107° (ESE) 04:40:37 .
ITUPSAT 1 25 Jul 04:30:53 04:32:57 13° 268° (W) 04:35:02 437.325
SRMSAT 25 Jul 04:34:16 04:37:23 15° 184° (S) 04:40:29 437.500
STARS 25 Jul 04:49:54 04:53:52 33° 71° (ENE) 04:57:51 437.465
PCSat 25 Jul 04:55:09 05:00:32 73° 114° (ESE) 05:05:58 145.827
SO-50 25 Jul 05:13:30 05:16:31 18° 110° (ESE) 05:19:31 436.795
ITAMSAT 1 25 Jul 05:18:00 05:22:15 26° 293° (WNW) 05:26:29 435.822/435.867
ISS 25 Jul 05:19:35 05:19:55 10° 233° (SW) 05:20:14 437.550
LilacSat-2 25 Jul 05:51:22 05:53:28 14° 93° (E) 05:55:35 437.200
DOVE 4 25 Jul 05:52:13 05:57:20 50° 99° (E) 06:02:12 437.250
CUBESAT XI-V 25 Jul 05:53:46 05:55:09 11° 269° (W) 05:56:33 437.345
YUBILEINY 25 Jul 05:56:42 06:05:25 66° 81° (E) 06:14:02 435.215
KKS-1 25 Jul 05:57:52 06:00:46 17° 266° (W) 06:03:41 437.445
XW-2F 25 Jul 06:05:13 06:07:55 19° 95° (E) 06:10:39 145.980 - 146.000
AO-7 25 Jul 06:18:11 06:24:06 22° 305° (NW) 06:30:02 .
STARS 25 Jul 06:27:04 06:30:14 19° 265° (W) 06:33:26 437.465
XW-2D 25 Jul 06:33:14 06:36:54 49° 100° (E) 06:40:33 145.860 - 145.880
PCSat 25 Jul 06:41:09 06:44:30 16° 312° (NW) 06:47:51 145.827
XW-2B 25 Jul 06:43:14 06:46:59 66° 101° (E) 06:50:43 145.730 - 145.750
SO-50 25 Jul 06:52:18 06:56:37 42° 305° (NW) 07:00:55 436.795
XW-2C 25 Jul 07:00:35 07:04:20 69° 283° (WNW) 07:08:05 145.795 - 145.815
STRAND 1 25 Jul 07:03:05 07:08:05 55° 73° (ENE) 07:13:07 437.568
CUTE-I 25 Jul 07:05:09 07:10:32 83° 103° (ESE) 07:15:52 437.470
NUDT-PHONESAT 25 Jul 07:07:56 07:11:35 77° 284° (WNW) 07:15:16 437.300
HO-68 25 Jul 07:19:30 07:25:54 35° 98° (E) 07:32:16 435.675
KAITUO 1B 25 Jul 07:22:35 07:26:10 46° 285° (WNW) 07:29:44 145.475/437.950
CUTE 1.7 + AOD 2 25 Jul 07:23:41 07:27:24 29° 97° (E) 07:31:07 437.475
LilacSat-2 25 Jul 07:24:26 07:27:48 31° 287° (WNW) 07:31:11 437.200
DOVE 4 25 Jul 07:31:00 07:34:30 18° 295° (WNW) 07:37:55 437.250
SEEDS 25 Jul 07:35:50 07:39:19 25° 96° (E) 07:42:47 437.485
XW-2F 25 Jul 07:38:58 07:41:59 23° 289° (WNW) 07:45:00 145.980 - 146.000
FO-29 25 Jul 07:54:23 07:59:20 19° 59° (ENE) 08:04:20 435.910
YUBILEINY 25 Jul 07:54:58 08:01:22 23° 278° (W) 08:07:46 435.215
UWE-3 25 Jul 08:02:38 08:05:53 22° 95° (E) 08:09:07 435.000/436.395/437.385
ZACube-1 25 Jul 08:16:26 08:19:07 17° 94° (E) 08:21:48 437.345
AAUSAT CUBESAT 2 25 Jul 08:18:38 08:22:27 34° 97° (E) 08:26:17 437.432
XW-2A 25 Jul 08:23:20 08:26:40 76° 282° (WNW) 08:29:58 145.665 - 145.685
CUBEBUG 2 25 Jul 08:40:39 08:44:52 68° 284° (WNW) 08:48:59 437.445
Oscar 11 25 Jul 08:41:41 08:45:07 23° 95° (E) 08:48:33 .
STRAND 1 25 Jul 08:44:36 08:47:34 15° 268° (W) 08:50:31 437.568
CUTE-I 25 Jul 08:47:56 08:49:48 12° 299° (WNW) 08:51:41 437.470
AO-73 25 Jul 08:55:28 08:59:26 44° 99° (E) 09:03:22 145.935
CUTE 1.7 + AOD 2 25 Jul 08:59:54 09:03:01 20° 291° (WNW) 09:06:10 437.475
TIGRISAT 25 Jul 09:06:36 09:10:14 23° 69° (ENE) 09:13:49 435.000
HO-68 25 Jul 09:07:02 09:13:35 41° 294° (WNW) 09:20:09 435.675
SEEDS 25 Jul 09:11:30 09:14:52 23° 290° (WNW) 09:18:13 437.485
M-CUBED/EXP-1 PRIME 25 Jul 09:13:48 09:15:31 13° 60° (ENE) 09:17:18 437.505
DELFI C3 25 Jul 09:20:26 09:22:34 14° 93° (E) 09:24:42 145.870
FO-29 25 Jul 09:35:41 09:43:14 89° 256° (WSW) 09:51:11 435.910
UWE-3 25 Jul 09:38:52 09:42:16 25° 290° (WNW) 09:45:38 435.000/436.395/437.385
EO-88 25 Jul 09:43:50 09:45:59 15° 94° (E) 09:48:07 145.990 - 145.960
NO-84 25 Jul 09:49:44 09:51:33 15° 123° (ESE) 09:53:26 435.350 FM
PRISM 25 Jul 09:50:38 09:54:40 63° 75° (ENE) 09:58:45 437.425
ZACube-1 25 Jul 09:51:47 09:55:27 32° 288° (WNW) 09:59:08 437.345
AAUSAT CUBESAT 2 25 Jul 09:54:55 09:57:37 17° 292° (WNW) 10:00:18 437.432
UNISAT 6 25 Jul 09:57:45 10:02:24 89° 245° (WSW) 10:07:02 437.425
Oscar 11 25 Jul 10:17:36 10:21:11 26° 290° (WNW) 10:24:46 .
AO-73 25 Jul 10:33:21 10:35:15 13° 294° (WNW) 10:37:09 145.935
QB50P2 25 Jul 10:33:53 10:35:34 12° 65° (ENE) 10:37:14 145.880/145.840
TIGRISAT 25 Jul 10:42:35 10:46:43 31° 263° (W) 10:50:48 435.000
EO-79 25 Jul 10:44:59 10:47:24 15° 67° (ENE) 10:49:50 145.935-145.965
NANOSAT C BR1 25 Jul 10:45:13 10:47:15 13° 66° (ENE) 10:49:19 145.865
M-CUBED/EXP-1 PRIME 25 Jul 10:46:09 10:49:30 39° 257° (WSW) 10:53:08 437.505
DELFI C3 25 Jul 10:53:45 10:57:26 36° 287° (WNW) 11:01:07 145.870
AIST 2D 25 Jul 11:00:55 11:04:16 47° 75° (ENE) 11:07:37 435.315
EO-88 25 Jul 11:16:33 11:19:39 27° 288° (WNW) 11:22:46 145.990 - 145.960
LO-87 25 Jul 11:19:36 11:22:47 30° 97° (E) 11:25:58 145.935 - 145.965
BEESAT 3 25 Jul 11:23:29 11:25:25 13° 108° (ESE) 11:27:23 437.485
FO-29 25 Jul 11:24:57 11:29:06 15° 273° (W) 11:33:24 435.910
NO-84 25 Jul 11:26:00 11:28:42 30° 321° (NW) 11:31:36 435.350 FM
ESTCUBE 1 25 Jul 11:26:18 11:29:58 24° 96° (E) 11:33:37 437.505/2401.250
DUCHIFAT 1 25 Jul 11:50:28 11:54:41 69° 76° (ENE) 11:58:54 145.980
POLYITAN 1 25 Jul 11:53:28 11:57:45 85° 258° (WSW) 12:02:02 437.675
BEESAT 2 25 Jul 12:04:31 12:06:04 12° 108° (ESE) 12:07:38 435.950
QB50P2 25 Jul 12:06:41 12:10:51 53° 260° (W) 12:15:02 145.880/145.840
VELOX 1 25 Jul 12:11:18 12:13:51 15° 93° (E) 12:16:24 145.980
BUGSAT 1 25 Jul 12:18:00 12:21:55 38° 73° (ENE) 12:25:50 437.445
NANOSAT C BR1 25 Jul 12:18:26 12:22:32 47° 261° (W) 12:26:39 145.865
EO-79 25 Jul 12:18:45 12:22:47 42° 261° (W) 12:26:51 145.935-145.965
AO-85 25 Jul 12:24:47 12:28:48 74° 119° (ESE) 12:32:44 145.980
LO-87 25 Jul 12:54:03 12:55:55 14° 292° (WNW) 12:57:47 145.935 - 145.965
SPROUT 25 Jul 12:57:46 13:02:01 63° 102° (ESE) 13:06:12 437.525
BEESAT 3 25 Jul 12:58:45 13:02:34 44° 304° (WNW) 13:06:26 437.485
Oscar 19 25 Jul 13:01:09 13:06:02 47° 72° (ENE) 13:10:56 437.125/150
ESTCUBE 1 25 Jul 13:02:51 13:06:42 28° 290° (WNW) 13:10:31 437.505/2401.250
RS-15 25 Jul 13:22:49 13:25:02 11° 94° (E) 13:27:15 29.354- 29.394
Gurwin Techsat 1B 25 Jul 13:30:18 13:35:30 58° 73° (ENE) 13:40:44 435.225
AO-7 25 Jul 13:31:18 13:36:29 18° 53° (NE) 13:41:39 .
BEESAT 2 25 Jul 13:39:29 13:43:20 48° 303° (WNW) 13:47:15 435.950
PCSat 25 Jul 13:45:44 13:50:41 35° 56° (NE) 13:55:35 145.827
VELOX 1 25 Jul 13:46:14 13:50:28 43° 287° (WNW) 13:54:39 145.980
SO-50 25 Jul 13:47:50 13:48:49 11° 42° (NE) 13:49:48 436.795
DX 1 25 Jul 13:50:04 13:54:24 58° 101° (E) 13:58:42 434.975-435.025
50 SAT 25 Jul 13:51:16 13:54:43 75° 282° (WNW) 13:58:07 437.505
BUGSAT 1 25 Jul 13:54:50 13:57:22 15° 266° (W) 13:59:55 437.445
UKube-1 25 Jul 14:31:44 14:36:02 70° 286° (WNW) 14:40:20 .
SPROUT 25 Jul 14:36:54 14:37:19 10° 296° (WNW) 14:37:43 437.525
BEESAT 25 Jul 14:41:29 14:43:35 13° 92° (E) 14:45:41 436.000
Oscar 19 25 Jul 14:42:13 14:45:33 17° 267° (W) 14:48:55 437.125/150
ITAMSAT 1 25 Jul 14:53:41 14:58:33 41° 71° (ENE) 15:03:27 435.822/435.867
ITUPSAT 1 25 Jul 14:54:07 14:57:17 18° 94° (E) 15:00:28 437.325
Gurwin Techsat 1B 25 Jul 15:12:47 15:15:47 15° 268° (W) 15:18:47 435.225
AO-7 25 Jul 15:19:40 15:28:03 86° 70° (ENE) 15:36:28 .
O/OREOS (USA 219) 25 Jul 15:21:24 15:25:53 73° 292° (WNW) 15:30:22 437.305
RS-15 25 Jul 15:23:04 15:34:54 64° 112° (ESE) 15:47:00 29.354- 29.394
SO-50 25 Jul 15:25:23 15:29:57 83° 59° (ENE) 15:34:33 436.795
DX 1 25 Jul 15:28:27 15:30:02 12° 296° (WNW) 15:31:38 434.975-435.025
PCSat 25 Jul 15:29:17 15:33:55 29° 252° (WSW) 15:38:31 145.827
MOZHAYETS 4 25 Jul 15:35:56 15:40:12 38° 98° (E) 15:44:25
CUBESAT XI-V 25 Jul 16:12:46 16:15:57 18° 93° (E) 16:19:08 437.345
BEESAT 25 Jul 16:17:00 16:21:40 56° 287° (WNW) 16:26:18 436.000
ITUPSAT 1 25 Jul 16:30:47 16:35:15 41° 288° (WNW) 16:39:41 437.325
ITAMSAT 1 25 Jul 16:34:13 16:38:07 21° 265° (W) 16:42:02 435.822/435.867
CUTE-I 25 Jul 16:48:12 16:50:26 13° 61° (ENE) 16:52:40 437.470
DOVE 4 25 Jul 16:54:41 16:59:08 37° 71° (ENE) 17:03:49 437.250
YUBILEINY 25 Jul 17:03:41 17:07:20 13° 77° (ENE) 17:10:59 435.215
XW-2D 25 Jul 17:12:58 17:15:26 17° 69° (ENE) 17:17:55 145.860 - 145.880
MOZHAYETS 4 25 Jul 17:13:56 17:17:01 18° 293° (WNW) 17:20:07
AO-7 25 Jul 17:16:36 17:21:37 17° 268° (W) 17:26:41 .
XW-2B 25 Jul 17:22:35 17:25:28 21° 70° (ENE) 17:28:21 145.730 - 145.750
RS-15 25 Jul 17:36:44 17:48:02 41° 315° (NW) 17:59:32 29.354- 29.394
XW-2C 25 Jul 17:39:19 17:42:45 35° 73° (ENE) 17:46:12 145.795 - 145.815
NUDT-PHONESAT 25 Jul 17:44:45 17:47:58 29° 73° (ENE) 17:51:12 437.300
HO-68 25 Jul 17:46:56 17:51:58 21° 60° (ENE) 17:57:00 435.675
CUBESAT XI-V 25 Jul 17:49:05 17:53:26 39° 288° (WNW) 17:57:47 437.345
KKS-1 25 Jul 17:49:15 17:53:43 74° 285° (WNW) 17:58:09 437.445
KAITUO 1B 25 Jul 17:59:42 18:03:16 49° 75° (ENE) 18:06:51 145.475/437.950
NO-84 25 Jul 18:00:11 18:03:57 46° 43° (NE) 18:07:59 435.350 FM
LilacSat-2 25 Jul 18:03:05 18:06:51 82° 76° (ENE) 18:10:37 437.200
CUTE 1.7 + AOD 2 25 Jul 18:14:57 18:17:27 16° 67° (ENE) 18:19:58 437.475
XW-2F 25 Jul 18:16:20 18:20:03 74° 259° (W) 18:23:47 145.980 - 146.000
STARS 25 Jul 18:17:12 18:21:37 89° 291° (WNW) 18:26:00 437.465
CUTE-I 25 Jul 18:24:23 18:29:45 79° 258° (WSW) 18:35:10 437.470
SEEDS 25 Jul 18:26:33 18:28:26 13° 66° (ENE) 18:30:19 437.485
DOVE 4 25 Jul 18:33:12 18:36:54 22° 267° (W) 18:40:45 437.250
XW-2D 25 Jul 18:46:12 18:49:24 26° 263° (W) 18:52:36 145.860 - 145.880
XW-2A 25 Jul 18:52:34 18:55:10 21° 72° (ENE) 18:57:47 145.665 - 145.685
YUBILEINY 25 Jul 18:53:48 19:02:38 81° 95° (E) 19:11:29 435.215
Tancredo 1 25 Jul 18:55:51 18:58:21 26° 132° (SE) 19:00:52 437.200
XW-2B 25 Jul 18:56:40 18:59:32 21° 265° (W) 19:02:24 145.730 - 145.750
UWE-3 25 Jul 18:57:43 19:00:25 16° 67° (ENE) 19:03:05 435.000/436.395/437.385
AAUSAT CUBESAT 2 25 Jul 19:07:11 19:09:49 17° 68° (ENE) 19:12:28 437.432
ZACube-1 25 Jul 19:11:19 19:12:41 11° 65° (ENE) 19:14:03 437.345
XW-2C 25 Jul 19:15:27 19:17:03 12° 267° (W) 19:18:39 145.795 - 145.815
STRAND 1 25 Jul 19:16:46 19:20:45 23° 95° (E) 19:24:41 437.568
NUDT-PHONESAT 25 Jul 19:19:52 19:21:54 14° 266° (W) 19:23:55 437.300
nSIGHT-1 25 Jul 19:24:41 19:27:05 19° 130° (SE) 19:29:28 .
HO-68 25 Jul 19:31:49 19:38:58 71° 256° (WSW) 19:46:10 435.675
CUBEBUG 2 25 Jul 19:35:14 19:39:56 71° 76° (ENE) 19:44:32 437.445
Oscar 11 25 Jul 19:35:17 19:37:27 14° 66° (ENE) 19:39:38 .
NO-84 25 Jul 19:38:19 19:41:15 19° 235° (SW) 19:44:18 435.350 FM
AO-73 25 Jul 19:48:29 19:52:10 27° 71° (ENE) 19:55:49 145.935
CUTE 1.7 + AOD 2 25 Jul 19:49:03 19:52:57 37° 262° (W) 19:56:51 437.475
RS-15 25 Jul 19:58:06 20:05:27 17° 347° (NNW) 20:12:46 29.354- 29.394
SEEDS 25 Jul 19:59:42 20:03:41 45° 261° (W) 20:07:42 437.485
ISS 25 Jul 20:18:30 20:21:45 81° 136° (SE) 20:24:59 437.550
XW-2A 25 Jul 20:25:36 20:27:50 16° 265° (W) 20:30:03 145.665 - 145.685
Tancredo 1 25 Jul 20:31:19 20:33:43 22° 328° (NNW) 20:36:08 437.200
UWE-3 25 Jul 20:32:05 20:36:29 45° 261° (W) 20:40:48 435.000/436.395/437.385
AAUSAT CUBESAT 2 25 Jul 20:41:17 20:44:59 33° 263° (W) 20:48:43 437.432
ZACube-1 25 Jul 20:44:01 20:48:27 61° 260° (W) 20:52:46 437.345
FO-29 25 Jul 20:52:01 20:55:29 14° 87° (E) 20:58:46 435.910
YUBILEINY 25 Jul 20:54:31 21:00:24 19° 294° (WNW) 21:06:21 435.215
STRAND 1 25 Jul 20:55:18 20:59:58 37° 290° (WNW) 21:04:37 437.568
AO-85 25 Jul 20:57:42 21:01:29 31° 54° (NE) 21:05:30 145.980
nSIGHT-1 25 Jul 21:00:19 21:03:18 34° 325° (NW) 21:06:17 .
Oscar 11 25 Jul 21:09:02 21:13:10 46° 261° (W) 21:17:19 .
BEESAT 3 25 Jul 21:17:35 21:21:25 44° 57° (ENE) 21:25:11 437.485
AO-73 25 Jul 21:24:45 21:28:19 24° 264° (W) 21:31:50 145.935
DELFI C3 25 Jul 21:35:53 21:39:48 84° 76° (ENE) 21:43:46 145.870
PRISM 25 Jul 21:37:17 21:37:50 10° 92° (E) 21:38:22 437.425
EO-88 25 Jul 21:50:56 21:54:33 80° 78° (ENE) 21:58:12 145.990 - 145.960
UNISAT 6 25 Jul 21:52:45 21:56:05 21° 95° (E) 21:59:20 437.425
ISS 25 Jul 21:56:41 21:58:34 14° 335° (NNW) 22:00:28 437.550
BEESAT 2 25 Jul 21:59:14 22:03:06 42° 56° (NE) 22:06:55 435.950
RS-15 25 Jul 22:16:16 22:24:53 21° 24° (NNE) 22:33:15 29.354- 29.394
ESTCUBE 1 25 Jul 22:24:10 22:27:02 17° 66° (ENE) 22:29:54 437.505/2401.250
M-CUBED/EXP-1 PRIME 25 Jul 22:26:57 22:30:05 18° 98° (E) 22:33:12 437.505
FO-29 25 Jul 22:34:25 22:41:27 78° 286° (WNW) 22:47:36 435.910
TIGRISAT 25 Jul 22:36:00 22:40:17 65° 101° (E) 22:44:29 435.000
AO-85 25 Jul 22:38:16 22:41:45 24° 247° (WSW) 22:45:26 145.980
BEESAT 3 25 Jul 22:56:44 22:58:33 13° 252° (WSW) 23:00:20 437.485
VELOX 1 25 Jul 23:08:11 23:08:56 10° 63° (ENE) 23:09:41 145.980
PRISM 25 Jul 23:09:18 23:13:23 54° 286° (WNW) 23:17:26 437.425
LO-87 25 Jul 23:25:44 23:29:16 48° 261° (W) 23:32:48 145.935 - 145.965
UNISAT 6 25 Jul 23:29:07 23:32:44 27° 290° (WNW) 23:36:20 437.425
BEESAT 2 25 Jul 23:38:17 23:40:27 14° 251° (WSW) 23:42:37 435.950
DUCHIFAT 1 25 Jul 23:38:43 23:40:32 13° 92° (E) 23:42:20 145.980
JUGNU 25 Jul 23:41:39 23:44:48 15° 175° (S) 23:47:57 437.505
POLYITAN 1 25 Jul 23:41:41 23:44:34 18° 94° (E) 23:47:26 437.675
SPROUT 25 Jul 23:48:30 23:52:23 34° 72° (ENE) 23:56:17 437.525
QB50P2 25 Jul 23:54:11 23:57:49 28° 97° (E) 00:01:26 145.880/145.840
O/OREOS (USA 219) 25 Jul 23:56:24 23:58:29 13° 57° (ENE) 00:00:33 437.305
ESTCUBE 1 25 Jul 23:59:18 00:03:29 40° 261° (W) 00:07:42 437.505/2401.250
M-CUBED/EXP-1 PRIME 26 Jul 00:00:11 00:04:35 43° 292° (WNW) 00:08:59 437.505
AIST 2D 26 Jul 00:01:02 00:04:32 88° 102° (ESE) 00:08:02 435.315
NANOSAT C BR1 26 Jul 00:05:12 00:08:56 30° 97° (E) 00:12:36 145.865
EO-79 26 Jul 00:05:42 00:09:34 34° 98° (E) 00:13:23 145.935-145.965
50 SAT 26 Jul 00:20:34 00:23:17 22° 71° (ENE) 00:26:00 437.505
FO-29 26 Jul 00:22:24 00:25:05 13° 305° (NW) 00:27:41 435.910
RS-15 26 Jul 00:28:47 00:40:45 60° 54° (NE) 00:52:00 29.354- 29.394
VELOX 1 26 Jul 00:40:22 00:44:45 68° 258° (WSW) 00:49:11 145.980
DX 1 26 Jul 00:43:04 00:47:02 36° 72° (ENE) 00:51:03 434.975-435.025
DUCHIFAT 1 26 Jul 01:12:25 01:16:24 44° 287° (WNW) 01:20:20 145.980
Oscar 19 26 Jul 01:15:52 01:19:40 20° 94° (E) 01:23:26 437.125/150
POLYITAN 1 26 Jul 01:16:40 01:20:23 31° 288° (WNW) 01:24:04 437.675
Tancredo 1 26 Jul 01:21:38 01:23:21 14° 27° (NNE) 01:25:04 437.200
UKube-1 26 Jul 01:23:15 01:27:31 70° 76° (ENE) 01:31:51 .
SPROUT 26 Jul 01:25:27 01:28:20 17° 266° (W) 01:31:14 437.525
JUGNU 26 Jul 01:29:53 01:33:01 15° 185° (S) 01:36:09 437.505
QB50P2 26 Jul 01:30:17 01:33:25 21° 291° (WNW) 01:36:32 145.880/145.840
O/OREOS (USA 219) 26 Jul 01:33:50 01:38:15 58° 253° (WSW) 01:42:40 437.305
BUGSAT 1 26 Jul 01:37:00 01:41:06 88° 281° (W) 01:45:08 437.445
NANOSAT C BR1 26 Jul 01:41:26 01:44:23 19° 292° (WNW) 01:47:20 145.865
EO-79 26 Jul 01:42:18 01:45:01 17° 293° (WNW) 01:47:43 145.935-145.965
BEESAT 26 Jul 01:46:09 01:48:07 12° 63° (ENE) 01:50:04 436.000
Gurwin Techsat 1B 26 Jul 01:49:27 01:53:59 28° 96° (E) 01:58:29 435.225
50 SAT 26 Jul 01:53:51 01:55:57 15° 265° (W) 01:58:04 437.505
nSIGHT-1 26 Jul 01:54:13 01:55:58 14° 25° (NNE) 01:57:42 .
ITUPSAT 1 26 Jul 01:58:54 02:01:55 17° 65° (ENE) 02:04:56 437.325
DX 1 26 Jul 02:20:27 02:23:19 17° 266° (W) 02:26:11 434.975-435.025
SRMSAT 26 Jul 02:32:54 02:36:01 14° 175° (S) 02:39:07 437.500
MOZHAYETS 4 26 Jul 02:35:30 02:39:23 28° 70° (ENE) 02:43:16
RS-15 26 Jul 02:42:07 02:52:32 38° 255° (WSW) 03:02:30 29.354- 29.394
ISS 26 Jul 02:48:28 02:51:28 32° 35° (NE) 02:54:27 437.550
Oscar 19 26 Jul 02:54:15 02:59:06 42° 289° (WNW) 03:03:56 437.125/150
Tancredo 1 26 Jul 02:56:04 02:59:00 60° 222° (SW) 03:01:54 437.200
ITAMSAT 1 26 Jul 03:10:01 03:13:24 17° 93° (E) 03:16:47 435.822/435.867
CUBESAT XI-V 26 Jul 03:14:44 03:17:01 14° 65° (ENE) 03:19:19 437.345
